Location: Unspecified
(0.0000°N, 0.0000°E)
Time: 08:07:55
(UTC+00:00)

DMSP B5D2-4 - Pass Details

Date: 13 June 2023
Orbit: 794 x 804 km, 98.3° (Epoch: 30 September)

Event Time Altitude Azimuth Distance (km) Brightness Sun altitude
Rises 20:02:25 0° 333° (NNW) 3,290 9.0 -27.9°
Reaches altitude 10° 20:06:40 10° 299° (WNW) 2,368 8.5 -28.8°
Maximum altitude 20:08:08 11° 283° (WNW) 2,290 8.3 -29.1°
Drops below altitude 10° 20:09:36 10° 266° (W) 2,373 8.2 -29.5°
Sets 20:13:54 0° 232° (SW) 3,310 8.6 -30.4°
